Helicity
365 396 338 301 312 296 273 260 234 217 182 162 157 162 162 151 144 131 118 120 115 106
384 359 324 292 290 309 302 292 252 227 195 169 172 170 154 151 150 129 119 133 131 116
387 339 317 311 313 305 330 325 308 232 205 168 165 163 160 164 153 135 131 133 130 120
395 356 373 325 321 380 382 309 254 236 195 174 174 159 172 168 149 158 159 136 127 131
398 367 349 391 424 400 326 288 268 218 201 165 172 154 145 159 166 175 168 150 127 122
418 424 377 399 386 344 319 303 251 215 182 158 152 152 148 171 178 164 153 139 134 131
473 465 410 393 349 321 308 277 240 188 187 144 152 142 162 159 150 156 160 141 141 117
526 498 422 377 299 262 266 250 215 203 216 164 132 133 129 135 147 151 149 142 121 135
528 525 494 478 341 235 284 273 255 285 142 125 119 123 127 145 147 145 132 116 135 127
610 635 653 481 436 324 274 307 178 174 136 116 138 127 141 145 138 123 122 125 137 120
696 751 633 559 494 387 265 205 181 154 138 145 134 124 135 128 120 110 112 116 131 117
801 837 725 562 395 281 280 227 186 164 169 159 167 160 121 101 118 113 122 125 121 106
819 732 534 307 302 284 232 193 181 183 174 195 194 155 135 105 105 119 122 118 115 107
763 498 316 350 299 260 205 192 188 183 212 200 172 158 137 130 112 109 127 128 115 113
Wind_Speed
36 33 30 27 24 22 19 16 15 18 21 23 25 31 35 39 43 44 45 45 44 44
39 36 33 28 25 22 19 16 18 19 17 18 21 27 32 38 42 43 44 44 44 44
43 39 34 31 30 26 21 20 17 14 15 16 19 24 32 36 39 41 43 42 41 42
45 40 37 36 31 27 21 20 13 12 12 15 19 23 29 33 36 40 43 42 41 43
44 40 39 36 32 28 23 14 10 9 12 17 19 24 29 32 36 39 41 41 42 44
44 42 41 36 29 23 18 14 12 10 16 17 21 23 27 31 35 39 41 43 44 42
44 43 36 31 26 24 20 17 14 13 16 19 20 22 27 32 36 37 40 40 42 42
41 38 37 33 29 28 25 20 13 16 18 18 19 24 28 33 37 40 42 40 40 44
37 39 36 37 32 25 25 21 16 21 18 19 25 23 28 32 37 41 42 40 43 47
36 38 37 34 30 27 24 21 20 17 18 20 24 21 25 31 38 41 41 41 46 48
41 39 33 30 30 29 24 21 18 20 19 22 23 20 24 30 39 39 39 42 48 49
40 36 31 30 30 24 21 21 19 16 19 22 23 23 27 34 38 37 41 42 48 49
34 32 28 27 26 22 19 18 14 16 20 20 24 26 30 33 36 39 43 45 47 48
24 24 24 23 20 19 16 11 11 15 20 23 26 28 31 34 38 42 45 47 49 52
Wind_Direction
241 246 249 245 252 261 270 285 300 318 330 341 349 352 355 356 353 354 355 359 359 358
242 243 246 246 249 256 268 279 295 311 335 347 352 353 353 352 349 353 354 357 359 357
241 242 243 244 248 253 261 274 289 310 329 342 351 350 348 348 351 351 352 355 358 356
242 241 243 246 247 251 260 274 282 302 319 332 340 344 345 346 350 350 350 353 354 353
240 241 245 247 247 250 260 258 276 292 317 325 336 338 337 341 346 347 347 350 349 349
237 241 246 248 252 250 247 253 268 292 306 323 328 333 338 342 345 346 347 348 346 347
242 248 247 247 242 248 249 253 269 288 305 316 328 333 337 338 341 344 346 347 347 345
244 248 247 252 250 254 254 261 269 289 307 315 325 330 334 335 339 342 343 345 346 345
233 236 240 251 253 252 262 269 280 299 300 308 321 328 333 339 341 341 342 342 345 344
233 234 242 246 244 250 262 276 286 291 296 305 319 329 338 341 341 340 341 342 341 341
237 241 238 234 242 252 267 277 280 283 294 307 322 334 336 338 337 338 340 339 340 339
233 227 224 229 242 253 265 276 282 289 297 310 327 335 335 335 337 338 338 339 340 340
227 223 225 240 249 260 267 279 292 300 307 320 329 333 336 337 336 335 336 338 340 340
218 208 230 246 252 263 274 292 304 313 319 327 331 334 335 336 334 334 336 336 337 339